Time,TemperatureF,DewpointF,PressureIn,WindDirection,WindDirectionDegrees,WindSpeedMPH,WindSpeedGustMPH,Humidity,HourlyPrecipIn,Conditions,Clouds,dailyrainin,SoftwareType,DateUTC
2013-05-08 00:02:00,58.0,56.0,29.96,East,96,1.0,-999.0,94,-99.99,,,-99.99,,2013-05-08 04:02:00,
2013-05-08 00:13:00,58.0,56.0,29.96,East,96,1.0,-999.0,94,-99.99,,,-99.99,,2013-05-08 04:13:00,
2013-05-08 00:23:00,58.0,56.0,29.96,ESE,111,1.0,-999.0,94,-99.99,,,-99.99,,2013-05-08 04:23:00,
2013-05-08 00:33:00,58.0,57.0,29.96,East,84,2.0,-999.0,95,-99.99,,,-99.99,,2013-05-08 04:33:00,
2013-05-08 00:43:00,58.0,57.0,29.96,East,84,2.0,-999.0,95,-99.99,,,-99.99,,2013-05-08 04:43:00,
2013-05-08 00:52:00,58.0,57.0,29.96,East,94,2.0,-999.0,95,-99.99,,,-99.99,,2013-05-08 04:52:00,
2013-05-08 01:02:00,58.0,57.0,29.96,SE,127,2.0,-999.0,95,-99.99,,,-99.99,,2013-05-08 05:02:00,
2013-05-08 01:12:00,58.0,57.0,29.96,SE,127,2.0,-999.0,95,-99.99,,,-99.99,,2013-05-08 05:12:00,
2013-05-08 01:22:00,59.0,58.0,29.96,East,97,4.0,-999.0,96,-99.99,,,-99.99,,2013-05-08 05:22:00,
2013-05-08 01:32:00,59.0,58.0,29.94,SE,128,5.0,-999.0,96,-99.99,,,-99.99,,2013-05-08 05:32:00,
2013-05-08 01:42:00,59.0,58.0,29.94,SE,128,5.0,-999.0,96,-99.99,,,-99.99,,2013-05-08 05:42:00,
2013-05-08 01:52:00,59.0,58.0,29.93,SE,142,4.0,-999.0,96,-99.99,,,-99.99,,2013-05-08 05:52:00,
2013-05-08 02:02:00,60.0,59.0,29.92,East,94,5.0,-999.0,96,-99.99,,,-99.99,,2013-05-08 06:02:00,
2013-05-08 02:12:00,60.0,59.0,29.92,East,94,5.0,-999.0,96,-99.99,,,-99.99,,2013-05-08 06:12:00,
2013-05-08 02:21:00,61.0,60.0,29.93,ESE,113,1.0,-999.0,96,-99.99,,,-99.99,,2013-05-08 06:21:00,
2013-05-08 02:32:00,60.0,59.0,29.92,ENE,71,3.0,-999.0,96,-99.99,,,-99.99,,2013-05-08 06:32:00,
2013-05-08 02:42:00,60.0,59.0,29.92,ENE,71,3.0,-999.0,96,-99.99,,,-99.99,,2013-05-08 06:42:00,
2013-05-08 02:52:00,59.0,58.0,29.92,East,86,2.0,-999.0,96,-99.99,,,-99.99,,2013-05-08 06:52:00,
2013-05-08 03:02:00,59.0,58.0,29.91,ENE,74,1.0,-999.0,96,-99.99,,,-99.99,,2013-05-08 07:02:00,
2013-05-08 03:11:00,59.0,58.0,29.91,ENE,74,1.0,-999.0,96,-99.99,,,-99.99,,2013-05-08 07:11:00,
2013-05-08 03:22:00,60.0,59.0,29.91,East,101,4.0,-999.0,96,-99.99,,,-99.99,,2013-05-08 07:22:00,
2013-05-08 03:32:00,60.0,59.0,29.91,ESE,111,5.0,-999.0,96,-99.99,,,-99.99,,2013-05-08 07:32:00,
2013-05-08 03:42:00,60.0,59.0,29.91,ESE,111,5.0,-999.0,96,-99.99,,,-99.99,,2013-05-08 07:42:00,
2013-05-08 03:52:00,59.0,58.0,29.91,ESE,107,5.0,-999.0,96,-99.99,,,-99.99,,2013-05-08 07:52:00,
2013-05-08 04:02:00,58.0,57.0,29.90,East,86,2.0,-999.0,96,-99.99,,,-99.99,,2013-05-08 08:02:00,
2013-05-08 04:12:00,58.0,57.0,29.90,East,86,2.0,-999.0,96,-99.99,,,-99.99,,2013-05-08 08:12:00,
2013-05-08 04:22:00,58.0,57.0,29.90,SE,128,3.0,-999.0,96,-99.99,,,-99.99,,2013-05-08 08:22:00,
2013-05-08 04:32:00,59.0,58.0,29.89,ESE,116,4.0,-999.0,97,-99.99,,,-99.99,,2013-05-08 08:32:00,
2013-05-08 04:42:00,59.0,58.0,29.89,ESE,116,4.0,-999.0,97,-99.99,,,-99.99,,2013-05-08 08:42:00,
2013-05-08 04:52:00,59.0,58.0,29.89,East,101,3.0,-999.0,96,-99.99,,,-99.99,,2013-05-08 08:52:00,
2013-05-08 05:02:00,60.0,59.0,29.90,ESE,118,4.0,-999.0,97,-99.99,,,-99.99,,2013-05-08 09:02:00,
2013-05-08 05:11:00,60.0,59.0,29.90,ESE,118,4.0,-999.0,97,-99.99,,,-99.99,,2013-05-08 09:11:00,
2013-05-08 05:21:00,60.0,59.0,29.89,ESE,103,2.0,-999.0,96,-99.99,,,-99.99,,2013-05-08 09:21:00,
2013-05-08 05:32:00,60.0,59.0,29.89,ESE,109,4.0,-999.0,97,-99.99,,,-99.99,,2013-05-08 09:32:00,
2013-05-08 05:42:00,60.0,59.0,29.89,ESE,109,4.0,-999.0,97,-99.99,,,-99.99,,2013-05-08 09:42:00,
2013-05-08 05:52:00,60.0,59.0,29.89,NE,56,3.0,-999.0,97,-99.99,,,-99.99,,2013-05-08 09:52:00,
2013-05-08 06:02:00,60.0,59.0,29.89,East,92,3.0,-999.0,97,-99.99,,,-99.99,,2013-05-08 10:02:00,
2013-05-08 06:12:00,60.0,59.0,29.89,East,92,3.0,-999.0,97,-99.99,,,-99.99,,2013-05-08 10:12:00,
2013-05-08 06:22:00,60.0,59.0,29.89,ESE,106,4.0,-999.0,97,-99.99,,,-99.99,,2013-05-08 10:22:00,
2013-05-08 06:33:00,60.0,59.0,29.89,ESE,107,2.0,-999.0,97,-99.99,,,-99.99,,2013-05-08 10:33:00,
2013-05-08 06:42:00,60.0,59.0,29.89,ESE,107,2.0,-999.0,97,-99.99,,,-99.99,,2013-05-08 10:42:00,
2013-05-08 06:52:00,60.0,59.0,29.90,ESE,105,3.0,-999.0,97,-99.99,,,-99.99,,2013-05-08 10:52:00,
2013-05-08 07:02:00,59.0,58.0,29.90,SE,138,4.0,-999.0,96,-99.99,,,-99.99,,2013-05-08 11:02:00,
2013-05-08 07:12:00,59.0,58.0,29.90,SE,138,4.0,-999.0,96,-99.99,,,-99.99,,2013-05-08 11:12:00,
2013-05-08 07:22:00,58.0,57.0,29.90,East,86,5.0,-999.0,96,-99.99,,,-99.99,,2013-05-08 11:22:00,
2013-05-08 07:32:00,58.0,57.0,29.91,ESE,110,2.0,-999.0,97,-99.99,,,-99.99,,2013-05-08 11:32:00,
2013-05-08 07:42:00,58.0,57.0,29.91,ESE,110,2.0,-999.0,97,-99.99,,,-99.99,,2013-05-08 11:42:00,
2013-05-08 07:52:00,58.0,57.0,29.91,East,100,3.0,-999.0,97,-99.99,,,-99.99,,2013-05-08 11:52:00,
2013-05-08 08:02:00,58.0,57.0,29.92,SE,130,2.0,-999.0,97,-99.99,,,-99.99,,2013-05-08 12:02:00,
2013-05-08 08:11:00,58.0,57.0,29.92,SE,130,2.0,-999.0,97,-99.99,,,-99.99,,2013-05-08 12:11:00,
2013-05-08 08:21:00,58.0,57.0,29.92,East,95,1.0,-999.0,97,-99.99,,,-99.99,,2013-05-08 12:21:00,
2013-05-08 08:32:00,58.0,57.0,29.91,East,94,1.0,-999.0,97,-99.99,,,-99.99,,2013-05-08 12:32:00,
2013-05-08 08:42:00,58.0,57.0,29.91,East,94,1.0,-999.0,97,-99.99,,,-99.99,,2013-05-08 12:42:00,
2013-05-08 08:52:00,59.0,58.0,29.90,East,96,2.0,-999.0,97,-99.99,,,-99.99,,2013-05-08 12:52:00,
2013-05-08 09:01:00,59.0,58.0,29.89,East,80,3.0,-999.0,97,-99.99,,,-99.99,,2013-05-08 13:01:00,
2013-05-08 09:12:00,59.0,58.0,29.89,East,80,3.0,-999.0,97,-99.99,,,-99.99,,2013-05-08 13:12:00,
2013-05-08 09:21:00,59.0,58.0,29.90,East,100,2.0,-999.0,97,-99.99,,,-99.99,,2013-05-08 13:21:00,
2013-05-08 09:32:00,60.0,59.0,29.89,North,355,2.0,-999.0,97,-99.99,,,-99.99,,2013-05-08 13:32:00,
2013-05-08 09:42:00,60.0,59.0,29.89,North,355,2.0,-999.0,97,-99.99,,,-99.99,,2013-05-08 13:42:00,
2013-05-08 09:52:00,60.0,59.0,29.90,NNE,22,3.0,-999.0,97,-99.99,,,-99.99,,2013-05-08 13:52:00,
2013-05-08 10:02:00,60.0,59.0,29.90,ESE,115,5.0,-999.0,97,-99.99,,,-99.99,,2013-05-08 14:02:00,
2013-05-08 10:11:00,60.0,59.0,29.90,ESE,115,5.0,-999.0,97,-99.99,,,-99.99,,2013-05-08 14:11:00,
2013-05-08 10:21:00,61.0,60.0,29.90,East,88,4.0,-999.0,97,-99.99,,,-99.99,,2013-05-08 14:21:00,
2013-05-08 10:32:00,61.0,60.0,29.91,East,89,3.0,-999.0,97,-99.99,,,-99.99,,2013-05-08 14:32:00,
2013-05-08 10:42:00,61.0,60.0,29.91,East,89,3.0,-999.0,97,-99.99,,,-99.99,,2013-05-08 14:42:00,
2013-05-08 10:52:00,61.0,60.0,29.91,ESE,106,2.0,-999.0,96,-99.99,,,-99.99,,2013-05-08 14:52:00,
2013-05-08 11:02:00,61.0,60.0,29.91,East,80,3.0,-999.0,96,-99.99,,,-99.99,,2013-05-08 15:02:00,
2013-05-08 11:11:00,61.0,60.0,29.91,East,80,3.0,-999.0,96,-99.99,,,-99.99,,2013-05-08 15:11:00,
2013-05-08 11:21:00,61.0,60.0,29.91,SE,126,4.0,-999.0,96,-99.99,,,-99.99,,2013-05-08 15:21:00,
2013-05-08 11:33:00,62.0,61.0,29.91,SE,142,5.0,-999.0,96,-99.99,,,-99.99,,2013-05-08 15:33:00,
2013-05-08 11:42:00,62.0,61.0,29.91,SE,142,5.0,-999.0,96,-99.99,,,-99.99,,2013-05-08 15:42:00,
2013-05-08 11:52:00,62.0,61.0,29.91,ESE,108,5.0,-999.0,96,-99.99,,,-99.99,,2013-05-08 15:52:00,
2013-05-08 12:03:00,62.0,61.0,29.90,East,84,3.0,-999.0,96,-99.99,,,-99.99,,2013-05-08 16:03:00,
2013-05-08 12:12:00,62.0,61.0,29.90,East,84,3.0,-999.0,96,-99.99,,,-99.99,,2013-05-08 16:12:00,
2013-05-08 12:23:00,62.0,61.0,29.90,ESE,115,4.0,-999.0,95,-99.99,,,-99.99,,2013-05-08 16:23:00,
2013-05-08 12:33:00,63.0,62.0,29.89,SE,146,4.0,-999.0,95,-99.99,,,-99.99,,2013-05-08 16:33:00,
2013-05-08 12:42:00,63.0,62.0,29.89,SE,146,4.0,-999.0,95,-99.99,,,-99.99,,2013-05-08 16:42:00,
2013-05-08 12:52:00,64.0,63.0,29.89,South,173,2.0,-999.0,95,-99.99,,,-99.99,,2013-05-08 16:52:00,
2013-05-08 13:02:00,64.0,62.0,29.89,SSE,159,3.0,-999.0,93,-99.99,,,-99.99,,2013-05-08 17:02:00,
2013-05-08 13:12:00,64.0,62.0,29.89,SSE,159,3.0,-999.0,93,-99.99,,,-99.99,,2013-05-08 17:12:00,
2013-05-08 13:22:00,65.0,63.0,29.88,SE,140,2.0,-999.0,93,-99.99,,,-99.99,,2013-05-08 17:22:00,
2013-05-08 13:32:00,65.0,63.0,29.88,SE,140,2.0,-999.0,93,-99.99,,,-99.99,,2013-05-08 17:32:00,
2013-05-08 13:41:00,65.0,63.0,29.88,SE,140,2.0,-999.0,93,-99.99,,,-99.99,,2013-05-08 17:41:00,
2013-05-08 13:52:00,69.0,65.0,29.87,ESE,104,2.0,-999.0,87,-99.99,,,-99.99,,2013-05-08 17:52:00,
2013-05-08 14:02:00,70.0,65.0,29.86,SE,133,1.0,-999.0,84,-99.99,,,-99.99,,2013-05-08 18:02:00,
2013-05-08 14:12:00,70.0,65.0,29.86,SE,133,1.0,-999.0,84,-99.99,,,-99.99,,2013-05-08 18:12:00,
2013-05-08 14:21:00,71.0,65.0,29.86,ESE,111,1.0,-999.0,81,-99.99,,,-99.99,,2013-05-08 18:21:00,
2013-05-08 14:32:00,73.0,66.0,29.86,SE,135,2.0,-999.0,78,-99.99,,,-99.99,,2013-05-08 18:32:00,
2013-05-08 14:42:00,73.0,66.0,29.86,SE,135,2.0,-999.0,78,-99.99,,,-99.99,,2013-05-08 18:42:00,
2013-05-08 14:52:00,76.0,62.0,29.85,SSW,196,4.0,-999.0,63,-99.99,,,-99.99,,2013-05-08 18:52:00,
2013-05-08 15:01:00,77.0,60.0,29.85,South,178,4.0,-999.0,56,-99.99,,,-99.99,,2013-05-08 19:01:00,
2013-05-08 15:11:00,77.0,60.0,29.85,South,178,4.0,-999.0,56,-99.99,,,-99.99,,2013-05-08 19:11:00,
2013-05-08 15:22:00,76.0,57.0,29.84,WSW,240,4.0,-999.0,52,-99.99,,,-99.99,,2013-05-08 19:22:00,
2013-05-08 15:32:00,76.0,59.0,29.84,SSE,161,3.0,-999.0,56,-99.99,,,-99.99,,2013-05-08 19:32:00,
2013-05-08 15:42:00,76.0,59.0,29.84,SSE,161,3.0,-999.0,56,-99.99,,,-99.99,,2013-05-08 19:42:00,
2013-05-08 15:52:00,76.0,57.0,29.84,SW,226,4.0,-999.0,52,-99.99,,,-99.99,,2013-05-08 19:52:00,
2013-05-08 16:02:00,77.0,61.0,29.85,SE,130,3.0,-999.0,58,-99.99,,,-99.99,,2013-05-08 20:02:00,
2013-05-08 16:11:00,77.0,61.0,29.85,SE,130,3.0,-999.0,58,-99.99,,,-99.99,,2013-05-08 20:11:00,
2013-05-08 16:22:00,76.0,59.0,29.84,South,173,3.0,-999.0,55,-99.99,,,-99.99,,2013-05-08 20:22:00,
2013-05-08 16:32:00,77.0,59.0,29.83,WSW,239,3.0,-999.0,54,-99.99,,,-99.99,,2013-05-08 20:32:00,
2013-05-08 16:42:00,77.0,58.0,29.84,SSW,200,5.0,-999.0,52,-99.99,,,-99.99,,2013-05-08 20:42:00,
2013-05-08 16:52:00,77.0,58.0,29.84,SSW,200,5.0,-999.0,52,-99.99,,,-99.99,,2013-05-08 20:52:00,
2013-05-08 17:02:00,78.0,57.0,29.84,East,95,4.0,-999.0,49,-99.99,,,-99.99,,2013-05-08 21:02:00,
2013-05-08 17:12:00,75.0,57.0,29.85,South,169,7.0,-999.0,54,-99.99,,,-99.99,,2013-05-08 21:12:00,
2013-05-08 17:21:00,75.0,57.0,29.85,South,169,7.0,-999.0,54,-99.99,,,-99.99,,2013-05-08 21:21:00,
2013-05-08 17:33:00,72.0,55.0,29.85,WSW,237,6.0,-999.0,56,-99.99,,,-99.99,,2013-05-08 21:33:00,
2013-05-08 17:43:00,70.0,54.0,29.85,SSE,153,5.0,-999.0,57,-99.99,,,-99.99,,2013-05-08 21:43:00,
2013-05-08 17:52:00,70.0,54.0,29.85,SSE,153,5.0,-999.0,57,-99.99,,,-99.99,,2013-05-08 21:52:00,
2013-05-08 18:03:00,69.0,54.0,29.86,South,190,5.0,-999.0,59,-99.99,,,-99.99,,2013-05-08 22:03:00,
2013-05-08 18:12:00,67.0,54.0,29.86,SSE,163,5.0,-999.0,62,-99.99,,,-99.99,,2013-05-08 22:12:00,
2013-05-08 18:22:00,67.0,54.0,29.86,SSE,163,5.0,-999.0,62,-99.99,,,-99.99,,2013-05-08 22:22:00,
2013-05-08 18:33:00,66.0,54.0,29.85,SSE,157,4.0,-999.0,65,-99.99,,,-99.99,,2013-05-08 22:33:00,
2013-05-08 18:42:00,66.0,55.0,29.85,South,172,3.0,-999.0,67,-99.99,,,-99.99,,2013-05-08 22:42:00,
2013-05-08 18:52:00,66.0,55.0,29.85,South,172,3.0,-999.0,67,-99.99,,,-99.99,,2013-05-08 22:52:00,
2013-05-08 19:02:00,65.0,55.0,29.85,SSW,196,4.0,-999.0,69,-99.99,,,-99.99,,2013-05-08 23:02:00,
2013-05-08 19:12:00,65.0,54.0,29.85,SE,144,3.0,-999.0,68,-99.99,,,-99.99,,2013-05-08 23:12:00,
2013-05-08 19:22:00,65.0,54.0,29.85,SE,144,3.0,-999.0,68,-99.99,,,-99.99,,2013-05-08 23:22:00,
2013-05-08 19:32:00,65.0,54.0,29.86,SSE,148,4.0,-999.0,68,-99.99,,,-99.99,,2013-05-08 23:32:00,
2013-05-08 19:42:00,64.0,54.0,29.87,SE,144,3.0,-999.0,71,-99.99,,,-99.99,,2013-05-08 23:42:00,
2013-05-08 19:52:00,64.0,54.0,29.87,SE,144,3.0,-999.0,71,-99.99,,,-99.99,,2013-05-08 23:52:00,
2013-05-08 20:02:00,63.0,54.0,29.87,SE,146,3.0,-999.0,73,-99.99,,,-99.99,,2013-05-09 00:02:00,
2013-05-08 20:12:00,63.0,54.0,29.87,SE,146,3.0,-999.0,73,-99.99,,,-99.99,,2013-05-09 00:12:00,
2013-05-08 20:21:00,62.0,54.0,29.88,SSE,152,3.0,-999.0,74,-99.99,,,-99.99,,2013-05-09 00:21:00,
2013-05-08 20:32:00,61.0,53.0,29.88,South,171,2.0,-999.0,75,-99.99,,,-99.99,,2013-05-09 00:32:00,
2013-05-08 20:42:00,61.0,54.0,29.88,SSE,165,1.0,-999.0,77,-99.99,,,-99.99,,2013-05-09 00:42:00,
2013-05-08 20:52:00,61.0,54.0,29.88,SSE,165,1.0,-999.0,77,-99.99,,,-99.99,,2013-05-09 00:52:00,
2013-05-08 21:01:00,60.0,53.0,29.89,South,184,2.0,-999.0,78,-99.99,,,-99.99,,2013-05-09 01:01:00,
2013-05-08 21:12:00,60.0,53.0,29.89,South,184,2.0,-999.0,78,-99.99,,,-99.99,,2013-05-09 01:12:00,
2013-05-08 21:22:00,60.0,54.0,29.90,SSW,213,1.0,-999.0,80,-99.99,,,-99.99,,2013-05-09 01:22:00,
2013-05-08 21:32:00,60.0,54.0,29.90,SSE,150,1.0,-999.0,81,-99.99,,,-99.99,,2013-05-09 01:32:00,
2013-05-08 21:42:00,59.0,54.0,29.91,SE,135,1.0,-999.0,83,-99.99,,,-99.99,,2013-05-09 01:42:00,
2013-05-08 21:52:00,59.0,54.0,29.91,SE,135,1.0,-999.0,83,-99.99,,,-99.99,,2013-05-09 01:52:00,
2013-05-08 22:02:00,59.0,54.0,29.91,South,186,0.0,-999.0,85,-99.99,,,-99.99,,2013-05-09 02:02:00,
2013-05-08 22:12:00,59.0,55.0,29.91,SSW,196,1.0,-999.0,86,-99.99,,,-99.99,,2013-05-09 02:12:00,
2013-05-08 22:22:00,59.0,55.0,29.91,SSW,196,1.0,-999.0,86,-99.99,,,-99.99,,2013-05-09 02:22:00,
2013-05-08 22:33:00,58.0,54.0,29.90,South,190,0.0,-999.0,87,-99.99,,,-99.99,,2013-05-09 02:33:00,
2013-05-08 22:42:00,58.0,54.0,29.90,South,190,0.0,-999.0,87,-99.99,,,-99.99,,2013-05-09 02:42:00,
2013-05-08 22:52:00,58.0,54.0,29.90,South,190,0.0,-999.0,87,-99.99,,,-99.99,,2013-05-09 02:52:00,
2013-05-08 23:02:00,58.0,54.0,29.90,SSW,200,0.0,-999.0,88,-99.99,,,-99.99,,2013-05-09 03:02:00,
2013-05-08 23:11:00,58.0,54.0,29.90,SSW,200,0.0,-999.0,88,-99.99,,,-99.99,,2013-05-09 03:11:00,
2013-05-08 23:21:00,57.0,54.0,29.89,South,180,1.0,-999.0,90,-99.99,,,-99.99,,2013-05-09 03:21:00,
2013-05-08 23:33:00,57.0,54.0,29.89,SSE,165,0.0,-999.0,90,-99.99,,,-99.99,,2013-05-09 03:33:00,
2013-05-08 23:43:00,57.0,54.0,29.89,SSE,165,0.0,-999.0,90,-99.99,,,-99.99,,2013-05-09 03:43:00,
2013-05-08 23:53:00,57.0,54.0,29.89,South,170,0.0,-999.0,91,-99.99,,,-99.99,,2013-05-09 03:53:00,